| time (UTC) | temp F | wind direction | speed MPH | gust MPH | rain 1hr in | rain 24hr in | rain mn in | humidity % | barometer mb |
| 20260509162350 | 58 | 198 | 1.0 | 2.0 | 0.00 | 0.00 | 0.00 | 78 | 1021.5 |
| 20260509161846 | 58 | 121 | 5.0 | 6.0 | 0.00 | 0.00 | 0.00 | 79 | 1021.6 |
| 20260509161342 | 58 | 192 | 2.0 | 2.0 | 0.00 | 0.00 | 0.00 | 78 | 1021.5 |
| 20260509160838 | 57 | 200 | 2.0 | 2.0 | 0.00 | 0.00 | 0.00 | 80 | 1021.7 |
| 20260509160334 | 57 | 167 | 3.0 | 5.0 | 0.00 | 0.00 | 0.00 | 79 | 1021.8 |
| 20260509155829 | 58 | 143 | 0.0 | 0.0 | 0.00 | 0.00 | 0.00 | 79 | 1022.0 |
| 20260509155326 | 57 | 117 | 4.0 | 5.0 | 0.00 | 0.00 | 0.00 | 80 | 1021.7 |
| 20260509154823 | 56 | 133 | 3.0 | 3.0 | 0.00 | 0.00 | 0.00 | 82 | 1021.9 |
| 20260509154319 | 56 | 149 | 2.0 | 3.0 | 0.00 | 0.00 | 0.00 | 82 | 1021.9 |
| 20260509153816 | 57 | 144 | 4.0 | 5.0 | 0.00 | 0.00 | 0.00 | 81 | 1021.9 |
| 20260509153313 | 55 | 155 | 1.0 | 1.0 | 0.00 | 0.00 | 0.00 | 85 | 1022.0 |
| 20260509152810 | 55 | 118 | 3.0 | 3.0 | 0.00 | 0.00 | 0.00 | 86 | 1021.8 |
| 20260509152307 | 55 | 160 | 3.0 | 5.0 | 0.00 | 0.00 | 0.00 | 85 | 1021.8 |
| 20260509151803 | 55 | 145 | 4.0 | 6.0 | 0.00 | 0.00 | 0.00 | 85 | 1021.8 |
| 20260509151259 | 55 | 139 | 3.0 | 5.0 | 0.00 | 0.00 | 0.00 | 86 | 1022.1 |
| 20260509150758 | 55 | 135 | 2.0 | 3.0 | 0.00 | 0.00 | 0.00 | 86 | 1022.3 |
| 20260509150255 | 56 | 197 | 3.0 | 3.0 | 0.00 | 0.00 | 0.00 | 84 | 1022.0 |
| 20260509145752 | 55 | 46 | 0.0 | 1.0 | 0.00 | 0.00 | 0.00 | 87 | 1022.4 |
| 20260509145252 | 55 | 122 | 2.0 | 2.0 | 0.00 | 0.00 | 0.00 | 87 | 1022.4 |
| 20260509144749 | 54 | 69 | 0.0 | 0.0 | 0.00 | 0.00 | 0.00 | 88 | 1022.4 |
| 20260509144245 | 54 | 145 | 5.0 | 5.0 | 0.00 | 0.00 | 0.00 | 87 | 1022.4 |
| 20260509143743 | 55 | 81 | 3.0 | 3.0 | 0.00 | 0.00 | 0.00 | 87 | 1022.3 |
| 20260509143240 | 54 | 67 | 0.0 | 0.0 | 0.00 | 0.00 | 0.00 | 87 | 1022.1 |
| 20260509142736 | 54 | 77 | 2.0 | 2.0 | 0.00 | 0.00 | 0.00 | 88 | 1022.2 |
| 20260509142232 | 54 | 133 | 1.0 | 2.0 | 0.00 | 0.00 | 0.00 | 86 | 1022.3 |
| 20260509141728 | 55 | 45 | 1.0 | 1.0 | 0.00 | 0.00 | 0.00 | 86 | 1022.5 |
| 20260509141226 | 54 | 42 | 0.0 | 0.0 | 0.00 | 0.00 | 0.00 | 88 | 1022.5 |
| 20260509140722 | 54 | 45 | 1.0 | 1.0 | 0.00 | 0.00 | 0.00 | 89 | 1022.5 |
| 20260509140222 | 53 | 41 | 0.0 | 0.0 | 0.00 | 0.00 | 0.00 | 90 | 1022.4 |
| 20260509135716 | 53 | 47 | 1.0 | 1.0 | 0.00 | 0.00 | 0.00 | 91 | 1022.4 |
| 20260509135214 | 52 | 38 | 1.0 | 1.0 | 0.00 | 0.00 | 0.00 | 92 | 1022.4 |
| 20260509134711 | 51 | 46 | 1.0 | 2.0 | 0.00 | 0.00 | 0.00 | 93 | 1022.5 |
| 20260509134208 | 51 | 355 | 0.0 | 0.0 | 0.00 | 0.00 | 0.00 | 94 | 1022.5 |
| 20260509133705 | 51 | 18 | 1.0 | 2.0 | 0.00 | 0.00 | 0.00 | 94 | 1022.4 |
| 20260509133202 | 50 | 36 | 1.0 | 1.0 | 0.00 | 0.00 | 0.00 | 95 | 1022.4 |
| 20260509132701 | 50 | 11 | 0.0 | 0.0 | 0.00 | 0.00 | 0.00 | 95 | 1022.5 |
| 20260509132159 | 50 | 337 | 0.0 | 0.0 | 0.00 | 0.00 | 0.00 | 95 | 1022.5 |
| 20260509131655 | 50 | 309 | 0.0 | 0.0 | 0.00 | 0.00 | 0.00 | 95 | 1022.4 |
| 20260509131152 | 49 | 308 | 0.0 | 0.0 | 0.00 | 0.00 | 0.00 | 95 | 1022.2 |
| 20260509130647 | 49 | 298 | 0.0 | 0.0 | 0.00 | 0.00 | 0.00 | 95 | 1022.3 |
| 20260509130144 | 49 | 300 | 0.0 | 0.0 | 0.00 | 0.00 | 0.00 | 95 | 1022.2 |
| 20260509125640 | 49 | 312 | 0.0 | 0.0 | 0.00 | 0.00 | 0.00 | 95 | 1022.3 |
| 20260509125137 | 49 | 319 | 0.0 | 0.0 | 0.00 | 0.00 | 0.00 | 95 | 1022.1 |
| 20260509124634 | 49 | 320 | 0.0 | 0.0 | 0.00 | 0.00 | 0.00 | 95 | 1022.3 |
| 20260509124131 | 49 | 342 | 0.0 | 0.0 | 0.00 | 0.00 | 0.00 | 95 | 1022.4 |
| 20260509123629 | 49 | 13 | 0.0 | 0.0 | 0.00 | 0.00 | 0.00 | 95 | 1022.3 |
| 20260509123125 | 49 | 340 | 0.0 | 0.0 | 0.00 | 0.00 | 0.00 | 94 | 1022.4 |
| 20260509122621 | 49 | 324 | 0.0 | 0.0 | 0.00 | 0.00 | 0.00 | 94 | 1022.3 |
| 20260509122119 | 50 | 303 | 0.0 | 0.0 | 0.00 | 0.00 | 0.00 | 94 | 1022.3 |
| 20260509121615 | 50 | 303 | 0.0 | 0.0 | 0.00 | 0.00 | 0.00 | 94 | 1022.5 |
| 20260509121113 | 50 | 296 | 0.0 | 0.0 | 0.00 | 0.00 | 0.00 | 94 | 1022.5 |
| 20260509120611 | 50 | 287 | 0.0 | 0.0 | 0.00 | 0.00 | 0.00 | 94 | 1022.4 |
| 20260509120109 | 50 | 280 | 0.0 | 0.0 | 0.00 | 0.00 | 0.00 | 93 | 1022.4 |
| 20260509115606 | 50 | 279 | 0.0 | 0.0 | 0.00 | 0.00 | 0.00 | 93 | 1022.5 |
| 20260509115103 | 50 | 277 | 0.0 | 0.0 | 0.00 | 0.00 | 0.00 | 93 | 1022.2 |
| 20260509114601 | 50 | 274 | 0.0 | 0.0 | 0.00 | 0.00 | 0.00 | 93 | 1022.7 |
| 20260509114100 | 50 | 275 | 1.0 | 1.0 | 0.00 | 0.00 | 0.00 | 93 | 1022.5 |
| 20260509113558 | 51 | 265 | 2.0 | 2.0 | 0.00 | 0.00 | 0.00 | 93 | 1022.6 |
| 20260509113055 | 51 | 271 | 1.0 | 2.0 | 0.00 | 0.00 | 0.00 | 93 | 1022.5 |
| 20260509112551 | 51 | 272 | 2.0 | 2.0 | 0.00 | 0.00 | 0.00 | 93 | 1022.4 |
| 20260509112049 | 51 | 272 | 0.0 | 0.0 | 0.00 | 0.00 | 0.00 | 93 | 1022.5 |
| 20260509111546 | 51 | 279 | 0.0 | 0.0 | 0.00 | 0.00 | 0.00 | 92 | 1022.4 |
| 20260509111043 | 50 | 289 | 0.0 | 0.0 | 0.00 | 0.00 | 0.00 | 92 | 1022.5 |
| 20260509110540 | 50 | 291 | 0.0 | 0.0 | 0.00 | 0.00 | 0.00 | 92 | 1022.8 |
| 20260509110037 | 50 | 281 | 0.0 | 0.0 | 0.00 | 0.00 | 0.00 | 92 | 1022.6 |
| 20260509105535 | 51 | 275 | 0.0 | 0.0 | 0.00 | 0.00 | 0.00 | 91 | 1022.7 |
| 20260509105032 | 51 | 274 | 0.0 | 0.0 | 0.00 | 0.00 | 0.00 | 91 | 1022.6 |
| 20260509104529 | 51 | 274 | 0.0 | 0.0 | 0.00 | 0.00 | 0.00 | 91 | 1022.7 |
| 20260509104026 | 51 | 255 | 0.0 | 0.0 | 0.00 | 0.00 | 0.00 | 91 | 1022.7 |
| 20260509103523 | 51 | 250 | 0.0 | 0.0 | 0.00 | 0.00 | 0.00 | 90 | 1022.8 |
| 20260509103021 | 52 | 212 | 1.0 | 2.0 | 0.00 | 0.00 | 0.00 | 90 | 1022.7 |
| 20260509102518 | 52 | 197 | 3.0 | 3.0 | 0.00 | 0.00 | 0.00 | 90 | 1022.8 |
| 20260509102015 | 52 | 198 | 3.0 | 3.0 | 0.00 | 0.00 | 0.00 | 90 | 1022.9 |
| 20260509101512 | 52 | 223 | 1.0 | 1.0 | 0.00 | 0.00 | 0.00 | 90 | 1022.9 |
| 20260509101009 | 52 | 195 | 2.0 | 2.0 | 0.00 | 0.00 | 0.00 | 90 | 1022.7 |
| 20260509100506 | 52 | 203 | 4.0 | 5.0 | 0.00 | 0.00 | 0.00 | 89 | 1022.8 |
| 20260509100003 | 52 | 192 | 6.0 | 7.0 | 0.00 | 0.00 | 0.00 | 89 | 1022.9 |
| 20260509095459 | 52 | 166 | 3.0 | 3.0 | 0.00 | 0.00 | 0.00 | 89 | 1022.9 |
| 20260509094957 | 52 | 201 | 3.0 | 5.0 | 0.00 | 0.00 | 0.00 | 88 | 1022.9 |
| 20260509094453 | 53 | 216 | 3.0 | 3.0 | 0.00 | 0.00 | 0.00 | 88 | 1022.8 |
| 20260509093950 | 53 | 191 | 4.0 | 5.0 | 0.00 | 0.00 | 0.00 | 88 | 1022.7 |
| 20260509093449 | 53 | 165 | 5.0 | 7.0 | 0.00 | 0.00 | 0.00 | 87 | 1023.0 |
| 20260509092946 | 53 | 203 | 2.0 | 3.0 | 0.00 | 0.00 | 0.00 | 87 | 1022.9 |
| 20260509092444 | 53 | 209 | 3.0 | 3.0 | 0.00 | 0.00 | 0.00 | 87 | 1022.9 |
| 20260509091942 | 53 | 196 | 2.0 | 2.0 | 0.00 | 0.00 | 0.00 | 87 | 1023.0 |
| 20260509091438 | 53 | 169 | 3.0 | 3.0 | 0.00 | 0.00 | 0.00 | 87 | 1022.8 |
| 20260509090936 | 53 | 166 | 4.0 | 5.0 | 0.00 | 0.00 | 0.00 | 87 | 1023.0 |
| 20260509090433 | 53 | 211 | 2.0 | 3.0 | 0.00 | 0.00 | 0.00 | 87 | 1022.9 |
| 20260509085931 | 53 | 218 | 5.0 | 6.0 | 0.00 | 0.00 | 0.00 | 87 | 1022.9 |
| 20260509085427 | 53 | 219 | 2.0 | 2.0 | 0.00 | 0.00 | 0.00 | 87 | 1022.9 |
| 20260509084923 | 53 | 225 | 3.0 | 5.0 | 0.00 | 0.00 | 0.00 | 87 | 1023.1 |
| 20260509084420 | 53 | 267 | 0.0 | 0.0 | 0.00 | 0.00 | 0.00 | 87 | 1023.0 |
| 20260509083918 | 53 | 258 | 0.0 | 1.0 | 0.00 | 0.00 | 0.00 | 87 | 1023.0 |
| 20260509083415 | 53 | 212 | 1.0 | 2.0 | 0.00 | 0.00 | 0.00 | 87 | 1023.1 |
| 20260509082912 | 53 | 230 | 0.0 | 0.0 | 0.00 | 0.00 | 0.00 | 87 | 1023.0 |
| 20260509082409 | 53 | 195 | 3.0 | 5.0 | 0.00 | 0.00 | 0.00 | 87 | 1023.1 |
| 20260509081905 | 53 | 198 | 3.0 | 5.0 | 0.00 | 0.00 | 0.00 | 87 | 1023.2 |
| 20260509081403 | 53 | 216 | 4.0 | 5.0 | 0.00 | 0.00 | 0.00 | 87 | 1022.9 |
| 20260509080900 | 53 | 232 | 3.0 | 5.0 | 0.00 | 0.00 | 0.00 | 87 | 1022.9 |
| 20260509080358 | 53 | 209 | 4.0 | 5.0 | 0.00 | 0.00 | 0.00 | 87 | 1022.8 |
| 20260509075856 | 53 | 209 | 5.0 | 6.0 | 0.00 | 0.00 | 0.00 | 86 | 1022.9 |
| 20260509075353 | 53 | 201 | 2.0 | 2.0 | 0.00 | 0.00 | 0.00 | 86 | 1023.0 |
| 20260509074850 | 53 | 216 | 2.0 | 2.0 | 0.00 | 0.00 | 0.00 | 86 | 1022.8 |
| 20260509074348 | 53 | 221 | 2.0 | 2.0 | 0.00 | 0.00 | 0.00 | 86 | 1022.9 |
| 20260509073844 | 53 | 229 | 1.0 | 2.0 | 0.00 | 0.00 | 0.00 | 86 | 1022.9 |
| 20260509073340 | 53 | 199 | 4.0 | 5.0 | 0.00 | 0.00 | 0.00 | 86 | 1023.0 |
| 20260509072837 | 53 | 224 | 1.0 | 1.0 | 0.00 | 0.00 | 0.00 | 86 | 1023.0 |
| 20260509072334 | 53 | 235 | 3.0 | 3.0 | 0.00 | 0.00 | 0.00 | 86 | 1022.9 |
| 20260509071830 | 53 | 226 | 0.0 | 0.0 | 0.00 | 0.00 | 0.00 | 85 | 1022.9 |
| 20260509071327 | 53 | 217 | 1.0 | 2.0 | 0.00 | 0.00 | 0.00 | 85 | 1022.9 |
| 20260509070825 | 53 | 216 | 0.0 | 0.0 | 0.00 | 0.00 | 0.00 | 85 | 1022.9 |
| 20260509070321 | 53 | 247 | 0.0 | 0.0 | 0.00 | 0.00 | 0.00 | 85 | 1023.0 |
| 20260509065818 | 53 | 261 | 0.0 | 0.0 | 0.00 | 0.00 | 0.00 | 85 | 1022.8 |
| 20260509065314 | 53 | 242 | 0.0 | 1.0 | 0.00 | 0.00 | 0.00 | 85 | 1022.6 |
| 20260509064810 | 53 | 246 | 0.0 | 1.0 | 0.00 | 0.00 | 0.00 | 85 | 1022.8 |
| 20260509064308 | 53 | 253 | 0.0 | 0.0 | 0.00 | 0.00 | 0.00 | 85 | 1022.6 |
| 20260509063805 | 53 | 262 | 0.0 | 0.0 | 0.00 | 0.00 | 0.00 | 85 | 1022.8 |
| 20260509063301 | 53 | 275 | 0.0 | 0.0 | 0.00 | 0.00 | 0.00 | 84 | 1022.7 |
| 20260509062758 | 53 | 270 | 0.0 | 0.0 | 0.00 | 0.00 | 0.00 | 84 | 1022.6 |
| 20260509062255 | 53 | 224 | 1.0 | 2.0 | 0.00 | 0.00 | 0.00 | 84 | 1022.6 |
| 20260509061752 | 53 | 259 | 0.0 | 1.0 | 0.00 | 0.00 | 0.00 | 83 | 1022.5 |
| 20260509061250 | 54 | 271 | 0.0 | 0.0 | 0.00 | 0.00 | 0.00 | 83 | 1022.4 |
| 20260509060747 | 54 | 245 | 1.0 | 1.0 | 0.00 | 0.00 | 0.00 | 83 | 1022.5 |
| 20260509060244 | 54 | 230 | 1.0 | 1.0 | 0.00 | 0.00 | 0.00 | 82 | 1022.5 |
| 20260509055739 | 54 | 240 | 0.0 | 0.0 | 0.00 | 0.00 | 0.00 | 82 | 1022.6 |
| 20260509055235 | 54 | 258 | 0.0 | 0.0 | 0.00 | 0.00 | 0.00 | 82 | 1022.6 |
| 20260509054732 | 54 | 259 | 0.0 | 0.0 | 0.00 | 0.00 | 0.00 | 82 | 1022.4 |
| 20260509054229 | 54 | 244 | 3.0 | 3.0 | 0.00 | 0.00 | 0.00 | 81 | 1022.4 |
| 20260509053728 | 54 | 254 | 1.0 | 2.0 | 0.00 | 0.00 | 0.00 | 81 | 1022.6 |
| 20260509053224 | 54 | 265 | 0.0 | 1.0 | 0.00 | 0.00 | 0.00 | 81 | 1022.6 |
| 20260509052722 | 55 | 218 | 5.0 | 7.0 | 0.00 | 0.00 | 0.00 | 80 | 1022.4 |
| 20260509052219 | 55 | 217 | 6.0 | 8.0 | 0.00 | 0.00 | 0.00 | 80 | 1022.7 |
| 20260509051717 | 55 | 271 | 0.0 | 1.0 | 0.00 | 0.00 | 0.00 | 80 | 1022.3 |
| 20260509051215 | 55 | 266 | 0.0 | 0.0 | 0.00 | 0.00 | 0.00 | 79 | 1022.3 |
| 20260509050711 | 55 | 241 | 0.0 | 0.0 | 0.00 | 0.00 | 0.00 | 79 | 1022.3 |
| 20260509050208 | 55 | 248 | 3.0 | 3.0 | 0.00 | 0.00 | 0.00 | 79 | 1022.4 |
| 20260509045705 | 55 | 215 | 3.0 | 3.0 | 0.00 | 0.00 | 0.00 | 79 | 1022.2 |
| 20260509045202 | 55 | 273 | 0.0 | 0.0 | 0.00 | 0.00 | 0.00 | 78 | 1022.2 |
| 20260509044659 | 55 | 268 | 0.0 | 0.0 | 0.00 | 0.00 | 0.00 | 78 | 1022.1 |
| 20260509044157 | 55 | 281 | 0.0 | 0.0 | 0.00 | 0.00 | 0.00 | 78 | 1022.2 |
| 20260509043653 | 55 | 301 | 0.0 | 0.0 | 0.00 | 0.00 | 0.00 | 77 | 1022.1 |
| 20260509043149 | 56 | 295 | 0.0 | 0.0 | 0.00 | 0.00 | 0.00 | 77 | 1021.9 |
| 20260509042646 | 56 | 290 | 0.0 | 0.0 | 0.00 | 0.00 | 0.00 | 76 | 1022.1 |
| 20260509042141 | 56 | 266 | 0.0 | 0.0 | 0.00 | 0.00 | 0.00 | 76 | 1022.2 |
| 20260509041638 | 56 | 273 | 0.0 | 0.0 | 0.00 | 0.00 | 0.00 | 75 | 1022.1 |
| 20260509041136 | 57 | 270 | 2.0 | 3.0 | 0.00 | 0.00 | 0.00 | 74 | 1022.1 |
| 20260509040634 | 57 | 254 | 1.0 | 1.0 | 0.00 | 0.00 | 0.00 | 74 | 1022.1 |
| 20260509040131 | 57 | 241 | 0.0 | 1.0 | 0.00 | 0.00 | 0.00 | 74 | 1021.8 |
| 20260509035627 | 57 | 230 | 1.0 | 2.0 | 0.00 | 0.00 | 0.00 | 74 | 1021.9 |
| 20260509035124 | 57 | 257 | 0.0 | 1.0 | 0.00 | 0.00 | 0.00 | 73 | 1021.9 |
| 20260509034622 | 57 | 261 | 0.0 | 0.0 | 0.00 | 0.00 | 0.00 | 73 | 1021.7 |
| 20260509034119 | 58 | 202 | 3.0 | 5.0 | 0.00 | 0.00 | 0.00 | 72 | 1021.7 |
| 20260509033616 | 58 | 241 | 1.0 | 3.0 | 0.00 | 0.00 | 0.00 | 72 | 1021.6 |
| 20260509033113 | 58 | 194 | 4.0 | 5.0 | 0.00 | 0.00 | 0.00 | 71 | 1021.6 |
| 20260509032610 | 58 | 177 | 2.0 | 2.0 | 0.00 | 0.00 | 0.00 | 71 | 1021.4 |
| 20260509032107 | 58 | 239 | 0.0 | 0.0 | 0.00 | 0.00 | 0.00 | 70 | 1021.6 |
| 20260509031605 | 59 | 211 | 5.0 | 6.0 | 0.00 | 0.00 | 0.00 | 69 | 1021.4 |
| 20260509031102 | 59 | 267 | 3.0 | 5.0 | 0.00 | 0.00 | 0.00 | 69 | 1021.3 |
| 20260509030600 | 59 | 178 | 3.0 | 3.0 | 0.00 | 0.00 | 0.00 | 68 | 1021.2 |
| 20260509030056 | 59 | 228 | 2.0 | 3.0 | 0.00 | 0.00 | 0.00 | 68 | 1021.2 |
| 20260509025553 | 59 | 247 | 4.0 | 5.0 | 0.00 | 0.00 | 0.00 | 67 | 1021.2 |
| 20260509025048 | 60 | 269 | 3.0 | 5.0 | 0.00 | 0.00 | 0.00 | 66 | 1021.1 |
| 20260509024544 | 60 | 185 | 7.0 | 8.0 | 0.00 | 0.00 | 0.00 | 65 | 1021.2 |
| 20260509024040 | 60 | 211 | 6.0 | 9.0 | 0.00 | 0.00 | 0.00 | 64 | 1021.1 |
| 20260509023538 | 60 | 214 | 3.0 | 3.0 | 0.00 | 0.00 | 0.00 | 63 | 1021.2 |
| 20260509023035 | 60 | 233 | 2.0 | 2.0 | 0.00 | 0.00 | 0.00 | 63 | 1021.2 |
| 20260509022532 | 60 | 212 | 4.0 | 8.0 | 0.00 | 0.00 | 0.00 | 63 | 1021.2 |
| 20260509022029 | 61 | 191 | 7.0 | 10.0 | 0.00 | 0.00 | 0.00 | 63 | 1021.2 |
| 20260509021526 | 61 | 250 | 3.0 | 6.0 | 0.00 | 0.00 | 0.00 | 63 | 1021.1 |
| 20260509021023 | 61 | 208 | 5.0 | 6.0 | 0.00 | 0.00 | 0.00 | 63 | 1021.4 |
| 20260509020522 | 61 | 186 | 6.0 | 7.0 | 0.00 | 0.00 | 0.00 | 63 | 1020.9 |
| 20260509020018 | 61 | 178 | 5.0 | 6.0 | 0.00 | 0.00 | 0.00 | 62 | 1021.1 |
| 20260509015517 | 61 | 191 | 2.0 | 2.0 | 0.00 | 0.00 | 0.00 | 62 | 1021.1 |
| 20260509015014 | 62 | 204 | 9.0 | 10.0 | 0.00 | 0.00 | 0.00 | 61 | 1020.9 |
| 20260509014511 | 62 | 194 | 6.0 | 7.0 | 0.00 | 0.00 | 0.00 | 60 | 1021.1 |
| 20260509014007 | 62 | 259 | 1.0 | 1.0 | 0.00 | 0.00 | 0.00 | 60 | 1021.1 |
| 20260509013504 | 62 | 200 | 9.0 | 10.0 | 0.00 | 0.00 | 0.00 | 60 | 1021.3 |
| 20260509012959 | 62 | 219 | 3.0 | 3.0 | 0.00 | 0.00 | 0.00 | 60 | 1021.0 |
| 20260509012456 | 62 | 180 | 6.0 | 8.0 | 0.00 | 0.00 | 0.00 | 60 | 1021.0 |
| 20260509011953 | 62 | 189 | 7.0 | 10.0 | 0.00 | 0.00 | 0.00 | 60 | 1021.0 |
| 20260509011451 | 63 | 160 | 10.0 | 13.0 | 0.00 | 0.00 | 0.00 | 58 | 1021.0 |
| 20260509010948 | 62 | 226 | 1.0 | 2.0 | 0.00 | 0.00 | 0.00 | 58 | 1021.3 |
| 20260509010446 | 62 | 275 | 6.0 | 8.0 | 0.00 | 0.00 | 0.00 | 58 | 1021.3 |
| 20260509005942 | 62 | 168 | 10.0 | 11.0 | 0.00 | 0.00 | 0.00 | 58 | 1021.2 |
| 20260509005441 | 62 | 205 | 3.0 | 3.0 | 0.00 | 0.00 | 0.00 | 56 | 1021.2 |
| 20260509004940 | 62 | 204 | 6.0 | 8.0 | 0.00 | 0.00 | 0.00 | 56 | 1021.4 |
| 20260509004437 | 62 | 178 | 8.0 | 9.0 | 0.00 | 0.00 | 0.00 | 58 | 1021.3 |
| 20260509003935 | 62 | 212 | 5.0 | 7.0 | 0.00 | 0.00 | 0.00 | 57 | 1021.3 |
| 20260509003433 | 62 | 195 | 9.0 | 10.0 | 0.00 | 0.00 | 0.00 | 57 | 1021.2 |
| 20260509002929 | 63 | 290 | 6.0 | 9.0 | 0.00 | 0.00 | 0.00 | 57 | 1021.2 |
| 20260509002427 | 62 | 206 | 6.0 | 7.0 | 0.00 | 0.00 | 0.00 | 57 | 1021.3 |
| 20260509001924 | 63 | 195 | 6.0 | 8.0 | 0.00 | 0.00 | 0.00 | 56 | 1021.3 |
| 20260509001421 | 63 | 218 | 10.0 | 11.0 | 0.00 | 0.00 | 0.00 | 57 | 1021.2 |
| 20260509000918 | 62 | 249 | 3.0 | 5.0 | 0.00 | 0.00 | 0.00 | 57 | 1021.4 |
| 20260509000418 | 62 | 288 | 6.0 | 9.0 | 0.00 | 0.00 | 0.00 | 57 | 1021.4 |
| 20260508235911 | 62 | 184 | 5.0 | 6.0 | 0.00 | 0.00 | 0.00 | 58 | 1021.2 |
| 20260508235409 | 63 | 246 | 5.0 | 8.0 | 0.00 | 0.00 | 0.00 | 55 | 1021.1 |
| 20260508234905 | 64 | 181 | 9.0 | 10.0 | 0.00 | 0.00 | 0.00 | 54 | 1021.1 |
| 20260508234402 | 63 | 282 | 1.0 | 2.0 | 0.00 | 0.00 | 0.00 | 55 | 1021.3 |
| 20260508233900 | 62 | 256 | 3.0 | 5.0 | 0.00 | 0.00 | 0.00 | 56 | 1021.2 |
| 20260508233400 | 62 | 204 | 9.0 | 11.0 | 0.00 | 0.00 | 0.00 | 55 | 1021.1 |
| 20260508232856 | 63 | 201 | 8.0 | 14.0 | 0.00 | 0.00 | 0.00 | 56 | 1021.1 |
| 20260508232352 | 62 | 171 | 7.0 | 9.0 | 0.00 | 0.00 | 0.00 | 56 | 1021.1 |
| 20260508231851 | 62 | 147 | 10.0 | 11.0 | 0.00 | 0.00 | 0.00 | 57 | 1021.1 |
| 20260508231346 | 61 | 222 | 7.0 | 8.0 | 0.00 | 0.00 | 0.00 | 57 | 1021.2 |
| 20260508230844 | 62 | 178 | 8.0 | 9.0 | 0.00 | 0.00 | 0.00 | 58 | 1021.1 |
| 20260508230340 | 62 | 272 | 1.0 | 3.0 | 0.00 | 0.00 | 0.00 | 57 | 1021.2 |
| 20260508225838 | 60 | 193 | 8.0 | 8.0 | 0.00 | 0.00 | 0.00 | 59 | 1021.3 |
| 20260508225334 | 61 | 188 | 8.0 | 9.0 | 0.00 | 0.00 | 0.00 | 59 | 1021.2 |
| 20260508224832 | 61 | 198 | 7.0 | 9.0 | 0.00 | 0.00 | 0.00 | 59 | 1021.2 |
| 20260508224330 | 61 | 202 | 7.0 | 9.0 | 0.00 | 0.00 | 0.00 | 60 | 1021.3 |
| 20260508223827 | 62 | 153 | 9.0 | 11.0 | 0.00 | 0.00 | 0.00 | 59 | 1021.3 |
| 20260508223324 | 60 | 183 | 9.0 | 10.0 | 0.00 | 0.00 | 0.00 | 60 | 1021.2 |
| 20260508222821 | 61 | 186 | 5.0 | 7.0 | 0.00 | 0.00 | 0.00 | 59 | 1021.3 |
| 20260508222318 | 60 | 184 | 6.0 | 7.0 | 0.00 | 0.00 | 0.00 | 61 | 1021.4 |
| 20260508221815 | 60 | 180 | 6.0 | 9.0 | 0.00 | 0.00 | 0.00 | 61 | 1021.2 |
| 20260508221310 | 60 | 165 | 7.0 | 9.0 | 0.00 | 0.00 | 0.00 | 62 | 1021.4 |
| 20260508220807 | 60 | 203 | 2.0 | 6.0 | 0.00 | 0.00 | 0.00 | 62 | 1021.3 |
| 20260508220304 | 60 | 218 | 3.0 | 5.0 | 0.00 | 0.00 | 0.00 | 60 | 1021.2 |
| 20260508215800 | 59 | 197 | 6.0 | 7.0 | 0.00 | 0.00 | 0.00 | 62 | 1021.4 |
| 20260508215257 | 60 | 181 | 9.0 | 10.0 | 0.00 | 0.00 | 0.00 | 62 | 1021.2 |
| 20260508214754 | 60 | 278 | 3.0 | 3.0 | 0.00 | 0.00 | 0.00 | 62 | 1021.0 |
| 20260508214251 | 58 | 231 | 3.0 | 5.0 | 0.00 | 0.00 | 0.00 | 64 | 1021.3 |
| 20260508213748 | 59 | 185 | 6.0 | 7.0 | 0.00 | 0.00 | 0.00 | 63 | 1021.2 |
| 20260508213244 | 59 | 148 | 4.0 | 5.0 | 0.00 | 0.00 | 0.00 | 63 | 1021.3 |
| 20260508212741 | 59 | 187 | 6.0 | 8.0 | 0.00 | 0.00 | 0.00 | 64 | 1021.4 |
| 20260508212237 | 58 | 194 | 13.0 | 15.0 | 0.00 | 0.00 | 0.00 | 65 | 1021.3 |
| 20260508211733 | 59 | 218 | 4.0 | 5.0 | 0.00 | 0.00 | 0.00 | 63 | 1021.3 |
| 20260508211229 | 58 | 248 | 5.0 | 7.0 | 0.00 | 0.00 | 0.00 | 64 | 1021.3 |
| 20260508210727 | 58 | 179 | 6.0 | 9.0 | 0.00 | 0.00 | 0.00 | 65 | 1021.3 |
| 20260508210223 | 57 | 125 | 5.0 | 7.0 | 0.00 | 0.00 | 0.00 | 66 | 1021.4 |
| 20260508205720 | 58 | 136 | 9.0 | 10.0 | 0.00 | 0.00 | 0.00 | 64 | 1021.2 |
| 20260508205217 | 59 | 206 | 6.0 | 9.0 | 0.00 | 0.00 | 0.00 | 65 | 1021.3 |
| 20260508204713 | 58 | 164 | 7.0 | 9.0 | 0.00 | 0.00 | 0.00 | 64 | 1021.3 |
| 20260508204210 | 58 | 212 | 5.0 | 6.0 | 0.00 | 0.00 | 0.00 | 66 | 1021.4 |
| 20260508203706 | 57 | 177 | 6.0 | 8.0 | 0.00 | 0.00 | 0.00 | 66 | 1021.3 |
| 20260508203202 | 56 | 200 | 5.0 | 6.0 | 0.00 | 0.00 | 0.00 | 67 | 1021.3 |
| 20260508202658 | 56 | 172 | 9.0 | 10.0 | 0.00 | 0.00 | 0.00 | 67 | 1021.2 |
| 20260508202155 | 56 | 173 | 5.0 | 5.0 | 0.00 | 0.00 | 0.00 | 67 | 1021.2 |
| 20260508201652 | 56 | 250 | 2.0 | 3.0 | 0.00 | 0.00 | 0.00 | 68 | 1021.1 |
| 20260508201149 | 56 | 243 | 3.0 | 5.0 | 0.00 | 0.00 | 0.00 | 67 | 1021.2 |
| 20260508200646 | 56 | 189 | 2.0 | 5.0 | 0.00 | 0.00 | 0.00 | 68 | 1021.3 |
| 20260508200142 | 56 | 217 | 5.0 | 6.0 | 0.00 | 0.00 | 0.00 | 68 | 1021.3 |
| 20260508195638 | 56 | 202 | 8.0 | 10.0 | 0.00 | 0.00 | 0.00 | 69 | 1021.2 |
| 20260508195135 | 56 | 229 | 9.0 | 11.0 | 0.00 | 0.00 | 0.00 | 68 | 1021.2 |
| 20260508194631 | 56 | 256 | 3.0 | 6.0 | 0.00 | 0.00 | 0.00 | 69 | 1021.0 |
| 20260508194128 | 57 | 197 | 4.0 | 5.0 | 0.00 | 0.00 | 0.00 | 66 | 1021.0 |
| 20260508193625 | 56 | 214 | 6.0 | 8.0 | 0.00 | 0.00 | 0.00 | 68 | 1020.9 |
| 20260508193122 | 56 | 193 | 5.0 | 9.0 | 0.00 | 0.00 | 0.00 | 66 | 1021.1 |
| 20260508192619 | 55 | 204 | 2.0 | 3.0 | 0.00 | 0.00 | 0.00 | 68 | 1021.2 |
| 20260508192116 | 56 | 192 | 6.0 | 7.0 | 0.00 | 0.00 | 0.00 | 67 | 1021.0 |
| 20260508191613 | 56 | 244 | 6.0 | 8.0 | 0.00 | 0.00 | 0.00 | 67 | 1020.9 |
| 20260508191109 | 56 | 229 | 5.0 | 8.0 | 0.00 | 0.00 | 0.00 | 67 | 1021.0 |
| 20260508190607 | 55 | 226 | 6.0 | 8.0 | 0.00 | 0.00 | 0.00 | 68 | 1020.9 |
| 20260508190103 | 55 | 205 | 5.0 | 8.0 | 0.00 | 0.00 | 0.00 | 69 | 1021.0 |
| 20260508185600 | 54 | 182 | 13.0 | 15.0 | 0.00 | 0.00 | 0.00 | 69 | 1020.9 |
| 20260508185057 | 54 | 216 | 7.0 | 10.0 | 0.00 | 0.00 | 0.00 | 70 | 1021.0 |
| 20260508184555 | 54 | 214 | 17.0 | 21.0 | 0.00 | 0.00 | 0.00 | 69 | 1020.9 |
| 20260508184051 | 55 | 193 | 4.0 | 6.0 | 0.00 | 0.00 | 0.00 | 70 | 1020.9 |
| 20260508183548 | 55 | 183 | 4.0 | 7.0 | 0.00 | 0.00 | 0.00 | 69 | 1020.8 |
| 20260508183043 | 54 | 184 | 11.0 | 14.0 | 0.00 | 0.00 | 0.00 | 70 | 1021.0 |
| 20260508182535 | 55 | 192 | 5.0 | 8.0 | 0.00 | 0.00 | 0.00 | 70 | 1020.9 |
| 20260508182032 | 54 | 177 | 11.0 | 14.0 | 0.00 | 0.00 | 0.00 | 71 | 1020.6 |
| 20260508181527 | 55 | 236 | 6.0 | 8.0 | 0.00 | 0.00 | 0.00 | 71 | 1020.6 |
| 20260508181025 | 54 | 252 | 6.0 | 7.0 | 0.00 | 0.00 | 0.00 | 71 | 1020.4 |
| 20260508180521 | 54 | 177 | 7.0 | 8.0 | 0.00 | 0.00 | 0.00 | 70 | 1020.5 |
| 20260508180018 | 54 | 173 | 6.0 | 9.0 | 0.00 | 0.00 | 0.00 | 71 | 1020.4 |
| 20260508175514 | 54 | 201 | 9.0 | 13.0 | 0.00 | 0.00 | 0.00 | 71 | 1020.5 |
| 20260508175012 | 54 | 210 | 4.0 | 6.0 | 0.00 | 0.00 | 0.00 | 73 | 1020.4 |
| 20260508174509 | 54 | 180 | 9.0 | 11.0 | 0.00 | 0.00 | 0.00 | 72 | 1020.2 |
| 20260508174006 | 54 | 222 | 7.0 | 10.0 | 0.00 | 0.00 | 0.00 | 73 | 1020.4 |
| 20260508173503 | 54 | 223 | 5.0 | 7.0 | 0.00 | 0.00 | 0.00 | 74 | 1020.2 |
| 20260508172959 | 54 | 181 | 3.0 | 5.0 | 0.00 | 0.00 | 0.00 | 74 | 1020.2 |
| 20260508172456 | 53 | 226 | 6.0 | 8.0 | 0.00 | 0.00 | 0.00 | 74 | 1019.9 |
| 20260508171952 | 54 | 209 | 5.0 | 7.0 | 0.00 | 0.00 | 0.00 | 74 | 1020.0 |
| 20260508171449 | 54 | 161 | 6.0 | 9.0 | 0.00 | 0.00 | 0.00 | 74 | 1019.7 |
| 20260508170945 | 54 | 267 | 3.0 | 5.0 | 0.00 | 0.00 | 0.00 | 74 | 1019.5 |
| 20260508170443 | 53 | 254 | 1.0 | 1.0 | 0.00 | 0.00 | 0.00 | 75 | 1019.8 |
| 20260508165939 | 53 | 171 | 14.0 | 16.0 | 0.00 | 0.00 | 0.00 | 75 | 1019.8 |
| 20260508165438 | 54 | 191 | 7.0 | 7.0 | 0.00 | 0.00 | 0.00 | 75 | 1019.4 |
| 20260508164933 | 54 | 157 | 5.0 | 8.0 | 0.00 | 0.00 | 0.00 | 74 | 1019.6 |
| 20260508164430 | 53 | 186 | 6.0 | 8.0 | 0.00 | 0.00 | 0.00 | 76 | 1019.4 |
| 20260508163927 | 53 | 179 | 10.0 | 11.0 | 0.00 | 0.00 | 0.00 | 76 | 1019.6 |
| 20260508163425 | 53 | 182 | 5.0 | 6.0 | 0.00 | 0.00 | 0.00 | 76 | 1019.5 |
| 20260508162920 | 53 | 188 | 6.0 | 8.0 | 0.00 | 0.00 | 0.00 | 77 | 1019.5 |